This is the latest recevied weather packets stored in our database for station/object WB5CFT. If no packets are shown the sender has not sent any weather packets the latest 10 day(s).
| Time | Temp. | Humidity | Pressure | Rain* | Wind** | Luminosity | Snow |
|---|---|---|---|---|---|---|---|
| 1777764290 | 18.89° C | 45% | 1021.9 hPa | 0 mm | - | 131 W/m² | - |
| 1777763986 | 18.89° C | 45% | 1021.9 hPa | 0 mm | - | 167 W/m² | - |
| 1777763684 | 18.89° C | 45% | 1022.1 hPa | 0 mm | - | 164 W/m² | - |
| 1777763382 | 18.89° C | 45% | 1021.9 hPa | 0 mm | - | 188 W/m² | - |
| 1777763080 | 18.89° C | 45% | 1021.9 hPa | 0 mm | - | 208 W/m² | - |
| 1777762777 | 18.89° C | 45% | 1022.1 hPa | 0 mm | - | 261 W/m² | - |
| 1777762473 | 18.89° C | 45% | 1021.9 hPa | 0 mm | - | 318 W/m² | - |
| 1777762170 | 18.89° C | 45% | 1022 hPa | 0 mm | - | 203 W/m² | - |
| 1777761866 | 18.89° C | 44% | 1022 hPa | 0 mm | - | 299 W/m² | - |
| 1777761563 | 18.89° C | 45% | 1022.3 hPa | 0 mm | - | 227 W/m² | - |
| 1777761261 | 18.89° C | 45% | 1022.1 hPa | 0 mm | - | 266 W/m² | - |
| 1777760959 | 18.89° C | 45% | 1022.1 hPa | 0 mm | - | 216 W/m² | - |
| 1777760656 | 18.89° C | 45% | 1022.1 hPa | 0 mm | - | 256 W/m² | - |
| 1777760351 | 18.89° C | 45% | 1022.1 hPa | 0 mm | - | 461 W/m² | - |
| 1777760048 | 19.44° C | 45% | 1022.4 hPa | 0 mm | - | 473 W/m² | - |
| 1777759745 | 18.33° C | 46% | 1022.3 hPa | 0 mm | - | 496 W/m² | - |
| 1777759441 | 18.33° C | 47% | 1022.4 hPa | 0 mm | - | 372 W/m² | - |
| 1777759137 | 18.33° C | 47% | 1022.5 hPa | 0 mm | - | 526 W/m² | - |
| 1777758835 | 18.89° C | 46% | 1022.4 hPa | 0 mm | - | 264 W/m² | - |
| 1777758532 | 18.33° C | 46% | 1022.6 hPa | 0 mm | - | 580 W/m² | - |
| 1777758228 | 18.33° C | 46% | 1022.6 hPa | 0 mm | - | 585 W/m² | - |
| 1777757926 | 18.33° C | 46% | 1023 hPa | 0 mm | - | 414 W/m² | - |
| 1777757623 | 18.33° C | 47% | 1023.1 hPa | 0 mm | - | 663 W/m² | - |
| 1777757322 | 18.33° C | 46% | 1023.4 hPa | 0 mm | - | 588 W/m² | - |
| 1777757020 | 18.89° C | 46% | 1023.2 hPa | 0 mm | - | 428 W/m² | - |
* Rain latest hour (hover to see other rain measurements)
** Current wind speed in m/s (hover to see current wind gust speed)